• en France
  • Liste des pays
  • À 7 jours
  • Température de l'eau
  • Carte satellitaire
  • Carte météo
  • Widgets météo
  • user-avatar
    Se connecter

    Météo par heure à Madingou

    Ce jour, 21 Octobre, Dimanche

    Heure Température Précipitation Vent Pression Humidité
    00:00 +28°C° 0.5 mm 2 m/s 743 mmHg 87%
    01:00 +27°C° 0.5 mm 2 m/s 743 mmHg 89%
    02:00 +27°C° 0.9 mm 2 m/s 743 mmHg 89%
    03:00 +27°C° 0.9 mm 2 m/s 743 mmHg 90%
    04:00 +27°C° 0.9 mm 2 m/s 743 mmHg 90%
    05:00 +27°C° 0.5 mm 2 m/s 743 mmHg 90%
    06:00 +27°C° 0.5 mm 2 m/s 744 mmHg 89%
    07:00 +27°C° 0 mm 2 m/s 744 mmHg 87%
    08:00 +29°C° 0.2 mm 1 m/s 744 mmHg 81%
    09:00 +30°C° 0.2 mm 1 m/s 744 mmHg 75%
    10:00 +32°C° 0.2 mm 1 m/s 744 mmHg 69%
    11:00 +33°C° 1 mm 1 m/s 743 mmHg 63%
    12:00 +35°C° 1 mm 1 m/s 743 mmHg 58%
    13:00 +35°C° 1 mm 0 m/s 742 mmHg 53%
    14:00 +36°C° 0.5 mm 1 m/s 742 mmHg 54%
    15:00 +35°C° 0.5 mm 1 m/s 741 mmHg 55%
    16:00 +34°C° 0.5 mm 1 m/s 741 mmHg 56%
    17:00 +32°C° 2.3 mm 1 m/s 742 mmHg 64%
    18:00 +31°C° 2.3 mm 1 m/s 742 mmHg 72%
    19:00 +29°C° 2.3 mm 2 m/s 743 mmHg 79%
    20:00 +29°C° 1.7 mm 2 m/s 743 mmHg 82%
    21:00 +28°C° 1.7 mm 2 m/s 744 mmHg 85%
    22:00 +28°C° 1.7 mm 2 m/s 744 mmHg 88%
    23:00 +27°C° 0.6 mm 2 m/s 744 mmHg 89%

    Demain, 22 Octobre, Lundi

    Heure Température Précipitation Vent Pression Humidité
    00:00 +27°C° 0.6 mm 2 m/s 744 mmHg 90%
    01:00 +26°C° 0.6 mm 2 m/s 744 mmHg 91%
    02:00 +26°C° 1.1 mm 2 m/s 743 mmHg 91%
    03:00 +26°C° 1.1 mm 2 m/s 743 mmHg 92%
    04:00 +26°C° 1.1 mm 2 m/s 743 mmHg 93%
    05:00 +26°C° 0.5 mm 1 m/s 743 mmHg 92%
    06:00 +26°C° 0.5 mm 1 m/s 744 mmHg 92%
    07:00 +26°C° 0.5 mm 1 m/s 744 mmHg 91%
    08:00 +27°C° 0.4 mm 1 m/s 744 mmHg 87%
    09:00 +28°C° 0.4 mm 1 m/s 745 mmHg 82%
    10:00 +29°C° 0.4 mm 1 m/s 745 mmHg 78%
    11:00 +30°C° 0.1 mm 1 m/s 744 mmHg 73%
    12:00 +32°C° 0.1 mm 1 m/s 743 mmHg 67%
    13:00 +33°C° 0.1 mm 1 m/s 742 mmHg 62%
    14:00 +33°C° 0.8 mm 1 m/s 742 mmHg 61%
    15:00 +33°C° 0.8 mm 1 m/s 742 mmHg 61%
    16:00 +33°C° 0.8 mm 1 m/s 741 mmHg 60%
    17:00 +32°C° 3.1 mm 1 m/s 742 mmHg 68%
    18:00 +30°C° 3.1 mm 1 m/s 743 mmHg 76%
    19:00 +28°C° 3.1 mm 1 m/s 743 mmHg 85%
    20:00 +28°C° 0.2 mm 1 m/s 744 mmHg 85%
    21:00 +28°C° 0.2 mm 1 m/s 744 mmHg 85%
    22:00 +26°C° 0.2 mm 0 m/s 745 mmHg 86%
    23:00 +26°C° 0 mm 0 m/s 745 mmHg 86%

    Après-demain, 23 Octobre, Mardi

    Heure Température Précipitation Vent Pression Humidité
    00:00 +25°C° 0 mm 0 m/s 744 mmHg 87%
    01:00 +25°C° 0 mm 0 m/s 744 mmHg 87%
    02:00 +25°C° 0 mm 0 m/s 744 mmHg 88%
    03:00 +25°C° 0 mm 0 m/s 744 mmHg 89%
    04:00 +25°C° 0 mm 0 m/s 743 mmHg 90%
    05:00 +25°C° 0 mm 0 m/s 744 mmHg 90%
    06:00 +25°C° 0 mm 0 m/s 745 mmHg 89%
    07:00 +25°C° 0 mm 0 m/s 745 mmHg 89%
    08:00 +26°C° 0.8 mm 0 m/s 746 mmHg 83%
    09:00 +30°C° 0.8 mm 1 m/s 746 mmHg 78%
    10:00 +31°C° 0.8 mm 1 m/s 746 mmHg 72%
    11:00 +31°C° 1.8 mm 1 m/s 745 mmHg 70%
    12:00 +32°C° 1.8 mm 1 m/s 745 mmHg 68%
    13:00 +32°C° 1.8 mm 1 m/s 744 mmHg 67%
    14:00 +32°C° 0.3 mm 1 m/s 744 mmHg 67%
    15:00 +31°C° 0.3 mm 1 m/s 743 mmHg 68%
    16:00 +31°C° 0.3 mm 1 m/s 743 mmHg 68%
    17:00 +30°C° 1.3 mm 1 m/s 744 mmHg 73%
    18:00 +29°C° 1.3 mm 1 m/s 744 mmHg 79%
    19:00 +28°C° 1.3 mm 1 m/s 745 mmHg 84%
    20:00 +28°C° 0.2 mm 1 m/s 745 mmHg 85%
    21:00 +25°C° 0.2 mm 0 m/s 746 mmHg 86%
    22:00 +25°C° 0.2 mm 0 m/s 746 mmHg 88%
    23:00 +27°C° 0.3 mm 1 m/s 746 mmHg 89%

    24 Octobre, Mercredi

    Heure Température Précipitation Vent Pression Humidité
    00:00 +27°C° 0.3 mm 1 m/s 745 mmHg 90%
    01:00 +27°C° 0.3 mm 1 m/s 745 mmHg 91%
    02:00 +26°C° 0.2 mm 1 m/s 744 mmHg 92%
    03:00 +26°C° 0.2 mm 1 m/s 744 mmHg 93%
    04:00 +26°C° 0.2 mm 1 m/s 744 mmHg 94%
    05:00 +26°C° 0.2 mm 1 m/s 744 mmHg 94%
    06:00 +24°C° 0.2 mm 0 m/s 745 mmHg 93%
    07:00 +24°C° 0.2 mm 0 m/s 746 mmHg 93%
    08:00 +25°C° 0.1 mm 0 m/s 746 mmHg 89%
    09:00 +28°C° 0.1 mm 1 m/s 746 mmHg 86%
    10:00 +28°C° 0.1 mm 1 m/s 746 mmHg 82%
    11:00 +29°C° 0 mm 1 m/s 745 mmHg 77%
    12:00 +30°C° 0 mm 1 m/s 744 mmHg 73%
    13:00 +31°C° 0 mm 1 m/s 743 mmHg 68%
    14:00 +32°C° 0 mm 1 m/s 743 mmHg 66%
    15:00 +32°C° 0 mm 1 m/s 742 mmHg 64%
    16:00 +33°C° 0 mm 1 m/s 742 mmHg 61%
    17:00 +31°C° 0.2 mm 1 m/s 742 mmHg 67%
    18:00 +30°C° 0.2 mm 1 m/s 743 mmHg 72%
    19:00 +29°C° 0.2 mm 1 m/s 743 mmHg 77%
    20:00 +28°C° 0.2 mm 1 m/s 744 mmHg 79%
    21:00 +28°C° 0.2 mm 1 m/s 744 mmHg 80%
    22:00 +27°C° 0.2 mm 1 m/s 744 mmHg 82%
    23:00 +27°C° 0.2 mm 1 m/s 744 mmHg 84%

    25 Octobre, Jeudi

    Heure Température Précipitation Vent Pression Humidité
    00:00 +27°C° 0.2 mm 1 m/s 744 mmHg 86%
    01:00 +26°C° 0.2 mm 1 m/s 743 mmHg 89%
    02:00 +26°C° 0 mm 1 m/s 743 mmHg 90%
    03:00 +26°C° 0 mm 1 m/s 743 mmHg 92%
    04:00 +26°C° 0 mm 1 m/s 743 mmHg 94%
    05:00 +26°C° 0.1 mm 1 m/s 743 mmHg 92%
    06:00 +27°C° 0.1 mm 1 m/s 744 mmHg 90%
    07:00 +27°C° 0.1 mm 1 m/s 745 mmHg 88%
    08:00 +28°C° 0 mm 1 m/s 745 mmHg 82%
    09:00 +30°C° 0 mm 1 m/s 745 mmHg 76%
    10:00 +31°C° 0 mm 1 m/s 745 mmHg 70%
    11:00 +33°C° 0.4 mm 1 m/s 744 mmHg 65%
    12:00 +34°C° 0.4 mm 1 m/s 743 mmHg 59%
    13:00 +36°C° 0.4 mm 1 m/s 742 mmHg 53%
    14:00 +36°C° 0.2 mm 1 m/s 742 mmHg 52%
    15:00 +36°C° 0.2 mm 1 m/s 741 mmHg 51%
    16:00 +36°C° 0.2 mm 1 m/s 741 mmHg 50%
    17:00 +34°C° 0.9 mm 1 m/s 742 mmHg 58%
    18:00 +32°C° 0.9 mm 1 m/s 742 mmHg 66%
    19:00 +30°C° 0.9 mm 1 m/s 743 mmHg 74%
    20:00 +30°C° 2.4 mm 1 m/s 743 mmHg 78%
    21:00 +29°C° 2.4 mm 1 m/s 744 mmHg 81%
    22:00 +28°C° 2.4 mm 1 m/s 744 mmHg 84%
    23:00 +28°C° 0.2 mm 1 m/s 744 mmHg 86%

    26 Octobre, Vendredi

    Heure Température Précipitation Vent Pression Humidité
    00:00 +28°C° 0.2 mm 1 m/s 743 mmHg 88%
    01:00 +27°C° 0.2 mm 1 m/s 743 mmHg 90%
    02:00 +27°C° 0.1 mm 1 m/s 743 mmHg 91%
    03:00 +27°C° 0.1 mm 1 m/s 743 mmHg 92%
    04:00 +27°C° 0.1 mm 1 m/s 743 mmHg 93%
    05:00 +27°C° 0.1 mm 1 m/s 744 mmHg 91%
    06:00 +27°C° 0.1 mm 1 m/s 744 mmHg 90%
    07:00 +25°C° 0.1 mm 0 m/s 745 mmHg 88%
    08:00 +27°C° 0.2 mm 0 m/s 745 mmHg 82%
    09:00 +29°C° 0.2 mm 0 m/s 745 mmHg 75%
    10:00 +30°C° 0.2 mm 0 m/s 745 mmHg 69%
    11:00 +32°C° 0.2 mm 0 m/s 744 mmHg 62%
    12:00 +34°C° 0.2 mm 0 m/s 743 mmHg 55%
    13:00 +36°C° 0.2 mm 0 m/s 742 mmHg 48%
    14:00 +35°C° 0.2 mm 0 m/s 742 mmHg 47%
    15:00 +35°C° 0.2 mm 0 m/s 741 mmHg 47%
    16:00 +34°C° 0.2 mm 0 m/s 741 mmHg 47%
    17:00 +34°C° 0.2 mm 1 m/s 742 mmHg 53%
    18:00 +33°C° 0.2 mm 1 m/s 742 mmHg 60%
    19:00 +31°C° 0.2 mm 1 m/s 743 mmHg 66%
    20:00 +30°C° 0.4 mm 2 m/s 744 mmHg 71%
    21:00 +29°C° 0.4 mm 2 m/s 744 mmHg 76%
    22:00 +29°C° 0.4 mm 3 m/s 744 mmHg 82%
    23:00 +28°C° 0 mm 2 m/s 744 mmHg 84%
    Voir plus